AWE1014 KSYR-KSYR

Flight info

Callsign AWE1014
Flight time 0h 14m
Altitude 4000
Route SYR
Aircraft A333/H-SDE3GHIJ2J3J5M1RVWXY/LB2D1

Departure

Time 2026-04-26 20:04
Airport Syracuse Hancock International Airport (KSYR)

Arrival

Time 2026-04-26 20:19
Airport Syracuse Hancock International Airport (KSYR)
Time Latitude Longitude Altitude Speed Heading
2026-04-26 19:43 43.11357 -76.10930 424 ft 0 kts 197°
2026-04-26 19:56 43.11363 -76.10927 425 ft 2 kts 189°
2026-04-26 19:56 43.11378 -76.10928 425 ft 2 kts 155°
2026-04-26 19:56 43.11390 -76.10939 424 ft 2 kts 128°
2026-04-26 19:56 43.11398 -76.10957 424 ft 2 kts 101°
2026-04-26 19:57 43.11398 -76.10970 424 ft 1 kts 85°
2026-04-26 19:57 43.11398 -76.10972 424 ft 0 kts 84°
2026-04-26 20:00 43.11398 -76.10971 424 ft 0 kts 84°
2026-04-26 20:00 43.11400 -76.10931 424 ft 8 kts 88°
2026-04-26 20:00 43.11402 -76.10846 424 ft 9 kts 88°
2026-04-26 20:00 43.11404 -76.10756 424 ft 9 kts 86°
2026-04-26 20:01 43.11409 -76.10670 424 ft 9 kts 86°
2026-04-26 20:01 43.11413 -76.10577 423 ft 10 kts 88°
2026-04-26 20:01 43.11388 -76.10485 422 ft 10 kts 130°
2026-04-26 20:01 43.11332 -76.10399 421 ft 16 kts 133°
2026-04-26 20:02 43.11230 -76.10251 419 ft 27 kts 132°
2026-04-26 20:02 43.11065 -76.10012 415 ft 40 kts 124°
2026-04-26 20:02 43.11046 -76.09598 410 ft 34 kts 88°
2026-04-26 20:02 43.11052 -76.09410 408 ft 10 kts 90°
2026-04-26 20:03 43.11051 -76.09338 408 ft 14 kts 93°
2026-04-26 20:03 43.10965 -76.09264 406 ft 17 kts 177°
2026-04-26 20:03 43.10909 -76.09370 406 ft 18 kts 273°
2026-04-26 20:03 43.10914 -76.09795 411 ft 78 kts 268°
2026-04-26 20:04 43.10883 -76.10827 422 ft 138 kts 268°
2026-04-26 20:04 43.10853 -76.12355 633 ft 170 kts 267°
2026-04-26 20:04 43.10762 -76.13884 1459 ft 164 kts 268°
2026-04-26 20:04 43.10667 -76.15395 2236 ft 162 kts 268°
2026-04-26 20:05 43.10574 -76.16904 2877 ft 159 kts 268°
2026-04-26 20:05 43.10485 -76.18437 3287 ft 164 kts 269°
2026-04-26 20:05 43.10392 -76.19994 3724 ft 167 kts 269°
2026-04-26 20:05 43.10294 -76.21635 4020 ft 183 kts 268°
2026-04-26 20:06 43.10189 -76.23542 3974 ft 223 kts 269°
2026-04-26 20:06 43.09975 -76.25820 4025 ft 263 kts 254°
2026-04-26 20:06 43.09007 -76.28054 3991 ft 280 kts 226°
2026-04-26 20:06 43.07386 -76.29466 3966 ft 276 kts 198°
2026-04-26 20:07 43.05506 -76.29787 3980 ft 272 kts 179°
2026-04-26 20:07 43.03624 -76.29484 3955 ft 269 kts 159°
2026-04-26 20:07 43.02097 -76.28123 3971 ft 265 kts 130°
2026-04-26 20:07 43.01223 -76.25950 3974 ft 261 kts 102°
2026-04-26 20:08 43.01073 -76.23491 3985 ft 260 kts 89°
2026-04-26 20:08 43.01042 -76.21012 3970 ft 259 kts 89°
2026-04-26 20:08 43.01038 -76.18557 3968 ft 259 kts 87°
2026-04-26 20:08 43.01074 -76.16103 3969 ft 258 kts 87°
2026-04-26 20:09 43.01109 -76.13674 3967 ft 258 kts 87°
2026-04-26 20:09 43.01145 -76.11203 3969 ft 257 kts 87°
2026-04-26 20:09 43.01182 -76.08768 3968 ft 258 kts 87°
2026-04-26 20:09 43.01217 -76.06319 3968 ft 258 kts 87°
2026-04-26 20:10 43.01252 -76.03870 3963 ft 258 kts 87°
2026-04-26 20:10 43.01293 -76.01393 3966 ft 259 kts 87°
2026-04-26 20:10 43.01333 -75.98937 3967 ft 258 kts 87°
2026-04-26 20:10 43.01369 -75.96506 3967 ft 258 kts 87°
2026-04-26 20:11 43.01408 -75.94038 3967 ft 259 kts 87°
2026-04-26 20:11 43.01447 -75.91592 3958 ft 260 kts 87°
2026-04-26 20:11 43.01490 -75.89117 3962 ft 260 kts 87°
2026-04-26 20:12 43.01569 -75.84187 3959 ft 260 kts 87°
2026-04-26 20:12 43.01772 -75.81781 3939 ft 258 kts 68°
2026-04-26 20:12 43.02854 -75.79907 3888 ft 249 kts 33°
2026-04-26 20:12 43.04489 -75.79232 3492 ft 253 kts
2026-04-26 20:13 43.06243 -75.79286 3197 ft 252 kts 359°
2026-04-26 20:13 43.08001 -75.79388 2947 ft 251 kts 351°
2026-04-26 20:13 43.09529 -75.80384 2942 ft 240 kts 315°
2026-04-26 20:13 43.10407 -75.82235 2964 ft 229 kts 299°
2026-04-26 20:14 43.11146 -75.84126 2938 ft 220 kts 298°
2026-04-26 20:14 43.11424 -75.86166 2962 ft 220 kts 269°
2026-04-26 20:14 43.11325 -75.88189 2950 ft 208 kts 268°
2026-04-26 20:14 43.11223 -75.90083 2929 ft 192 kts 268°
2026-04-26 20:15 43.11120 -75.91846 2908 ft 180 kts 268°
2026-04-26 20:15 43.11019 -75.93514 2710 ft 172 kts 268°
2026-04-26 20:15 43.10921 -75.95083 2443 ft 161 kts 268°
2026-04-26 20:15 43.10822 -75.96555 2221 ft 147 kts 268°
2026-04-26 20:16 43.10748 -75.97905 2037 ft 143 kts 278°
2026-04-26 20:16 43.11071 -75.99159 1856 ft 141 kts 287°
2026-04-26 20:16 43.11167 -76.00494 1672 ft 143 kts 273°
2026-04-26 20:16 43.11155 -76.01866 1450 ft 142 kts 272°
2026-04-26 20:17 43.11124 -76.03216 1257 ft 142 kts 271°
2026-04-26 20:17 43.11079 -76.04556 1082 ft 142 kts 270°
2026-04-26 20:17 43.11027 -76.05899 885 ft 141 kts 271°
2026-04-26 20:17 43.11013 -76.06795 763 ft 140 kts 273°
2026-04-26 20:18 43.10951 -76.08566 530 ft 141 kts 271°
2026-04-26 20:18 43.10911 -76.09883 414 ft 130 kts 269°
2026-04-26 20:18 43.10875 -76.11146 425 ft 119 kts 269°
2026-04-26 20:18 43.10843 -76.12013 431 ft 63 kts 267°
2026-04-26 20:19 43.10831 -76.12479 428 ft 31 kts 275°
2026-04-26 20:19 43.10865 -76.12597 428 ft 12 kts 315°
2026-04-26 20:19 43.10936 -76.12609 428 ft 10 kts 45°
2026-04-26 20:19 43.10943 -76.12582 428 ft 0 kts 80°
2026-04-26 20:20 43.10949 -76.12475 428 ft 21 kts 87°
2026-04-26 20:20 43.10955 -76.12238 429 ft 25 kts 88°
2026-04-26 20:20 43.10963 -76.11995 428 ft 25 kts 88°
2026-04-26 20:21 43.10972 -76.11751 428 ft 25 kts 87°
2026-04-26 20:21 43.10981 -76.11516 428 ft 24 kts 88°
2026-04-26 20:21 43.10988 -76.11295 424 ft 22 kts 86°
2026-04-26 20:21 43.10994 -76.11084 424 ft 21 kts 86°
2026-04-26 20:22 43.11004 -76.10880 424 ft 21 kts 86°
2026-04-26 20:22 43.11006 -76.10677 421 ft 21 kts 85°
2026-04-26 20:22 43.11015 -76.10474 418 ft 20 kts 87°
2026-04-26 20:22 43.11023 -76.10283 417 ft 20 kts 86°
2026-04-26 20:23 43.11034 -76.10085 415 ft 20 kts 85°
2026-04-26 20:23 43.10991 -76.09898 413 ft 20 kts 125°
2026-04-26 20:23 43.10915 -76.09881 412 ft 13 kts 261°
2026-04-26 20:23 43.10915 -76.09888 413 ft 0 kts 264°
2026-04-26 20:24 43.10902 -76.10256 415 ft 85 kts 269°
2026-04-26 20:24 43.10824 -76.11454 429 ft 164 kts 265°
2026-04-26 20:24 43.10804 -76.13176 935 ft 190 kts 274°
2026-04-26 20:24 43.10728 -76.14864 2196 ft 179 kts 268°
2026-04-26 20:25 43.10636 -76.16453 3366 ft 171 kts 270°
2026-04-26 20:25 43.10584 -76.17513 3917 ft 167 kts 269°
2026-04-26 20:25 43.10475 -76.19862 3924 ft 211 kts 269°
2026-04-26 20:25 43.10388 -76.22039 4006 ft 248 kts 269°
2026-04-26 20:26 43.10295 -76.24558 4024 ft 276 kts 269°
2026-04-26 20:26 43.10143 -76.27183 3954 ft 275 kts 259°
2026-04-26 20:26 43.09314 -76.29501 3970 ft 274 kts 230°
2026-04-26 20:26 43.07803 -76.31030 3977 ft 272 kts 202°
2026-04-26 20:27 43.05941 -76.31469 3984 ft 271 kts 180°
2026-04-26 20:27 43.04068 -76.31471 3979 ft 271 kts 179°
2026-04-26 20:27 43.02216 -76.31187 3956 ft 269 kts 159°
2026-04-26 20:27 43.00664 -76.29820 3980 ft 265 kts 130°
2026-04-26 20:28 42.99795 -76.27666 3975 ft 261 kts 102°
2026-04-26 20:28 42.99649 -76.25212 3997 ft 259 kts 89°
2026-04-26 20:28 42.99621 -76.22749 3979 ft 260 kts 89°
2026-04-26 20:28 42.99616 -76.20284 3982 ft 260 kts 89°
2026-04-26 20:29 42.99583 -76.17823 3975 ft 259 kts 89°
2026-04-26 20:29 42.99555 -76.15370 3975 ft 259 kts 89°
2026-04-26 20:29 42.99530 -76.12947 3976 ft 258 kts 89°
2026-04-26 20:29 42.99504 -76.10474 3979 ft 258 kts 89°
2026-04-26 20:30 42.99484 -76.08044 3976 ft 259 kts 89°
2026-04-26 20:30 42.99463 -76.05566 3975 ft 258 kts 89°
2026-04-26 20:30 42.99438 -76.03115 3970 ft 258 kts 89°
2026-04-26 20:30 42.99417 -76.00655 3972 ft 259 kts 88°
2026-04-26 20:31 42.99454 -75.98216 3976 ft 259 kts 87°
2026-04-26 20:31 42.99499 -75.95773 3967 ft 259 kts 87°
2026-04-26 20:31 42.99545 -75.93305 3961 ft 260 kts 86°
2026-04-26 20:31 42.99589 -75.90821 3955 ft 260 kts 87°
2026-04-26 20:32 42.99637 -75.88372 3954 ft 260 kts 87°
2026-04-26 20:32 42.99685 -75.85921 3949 ft 260 kts 87°
2026-04-26 20:32 42.99734 -75.83446 3954 ft 260 kts 87°
2026-04-26 20:32 42.99978 -75.81044 3930 ft 257 kts 65°
2026-04-26 20:33 43.01129 -75.79236 3960 ft 255 kts 30°
2026-04-26 20:33 43.02844 -75.78685 3960 ft 256 kts
2026-04-26 20:33 43.04605 -75.78764 3954 ft 254 kts 359°
2026-04-26 20:33 43.06343 -75.78835 3919 ft 244 kts 359°
2026-04-26 20:34 43.07997 -75.78897 3893 ft 233 kts 359°
2026-04-26 20:34 43.09556 -75.79177 3649 ft 222 kts 336°
2026-04-26 20:34 43.10651 -75.80568 3268 ft 221 kts 301°
2026-04-26 20:34 43.11319 -75.82454 3009 ft 219 kts 285°
2026-04-26 20:35 43.11360 -75.84478 2954 ft 205 kts 268°
2026-04-26 20:35 43.11261 -75.86343 2923 ft 191 kts 268°
2026-04-26 20:35 43.11235 -75.88094 2923 ft 182 kts 278°
2026-04-26 20:35 43.11363 -75.89813 2965 ft 181 kts 278°
2026-04-26 20:36 43.11427 -75.91552 2922 ft 185 kts 269°
2026-04-26 20:36 43.11330 -75.93302 2677 ft 186 kts 268°
2026-04-26 20:36 43.11225 -75.95055 2500 ft 177 kts 268°
2026-04-26 20:36 43.11129 -75.96680 2253 ft 171 kts 269°
2026-04-26 20:37 43.11126 -75.98288 1979 ft 164 kts 276°
2026-04-26 20:37 43.11186 -75.99794 1669 ft 155 kts 276°
2026-04-26 20:37 43.11199 -76.01202 1440 ft 141 kts 271°
2026-04-26 20:37 43.11134 -76.02536 1248 ft 138 kts 269°
2026-04-26 20:38 43.11084 -76.03828 1083 ft 138 kts 272°
2026-04-26 20:38 43.11063 -76.05117 930 ft 136 kts 272°
2026-04-26 20:38 43.11019 -76.06409 811 ft 135 kts 270°
2026-04-26 20:38 43.10978 -76.07705 682 ft 137 kts 271°
2026-04-26 20:39 43.10940 -76.08987 472 ft 135 kts 272°
2026-04-26 20:39 43.10889 -76.10259 429 ft 125 kts 270°
2026-04-26 20:39 43.10869 -76.11218 425 ft 74 kts 268°
2026-04-26 20:39 43.10854 -76.11671 428 ft 23 kts 267°
2026-04-26 20:40 43.10866 -76.11774 428 ft 16 kts 302°
2026-04-26 20:40 43.10968 -76.11747 428 ft 22 kts 77°
2026-04-26 20:40 43.10980 -76.11523 428 ft 24 kts 88°
2026-04-26 20:40 43.10987 -76.11281 424 ft 25 kts 87°
2026-04-26 20:41 43.10998 -76.11038 424 ft 25 kts 87°
2026-04-26 20:41 43.11007 -76.10799 424 ft 24 kts 88°
2026-04-26 20:41 43.11010 -76.10558 419 ft 26 kts 91°
2026-04-26 20:41 43.11020 -76.10310 417 ft 26 kts 88°
2026-04-26 20:42 43.11029 -76.10058 415 ft 26 kts 87°
2026-04-26 20:42 43.11037 -76.09807 412 ft 26 kts 86°
2026-04-26 20:42 43.11048 -76.09549 409 ft 27 kts 87°
2026-04-26 20:42 43.11052 -76.09359 408 ft 13 kts 88°
2026-04-26 20:43 43.11004 -76.09271 407 ft 13 kts 166°
2026-04-26 20:43 43.10935 -76.09338 407 ft 19 kts 261°
2026-04-26 20:43 43.10921 -76.09705 410 ft 69 kts 268°
2026-04-26 20:43 43.10887 -76.10682 420 ft 135 kts 266°
2026-04-26 20:44 43.10836 -76.12192 524 ft 178 kts 268°
2026-04-26 20:44 43.10752 -76.14002 907 ft 204 kts 269°
2026-04-26 20:44 43.10663 -76.16140 1133 ft 253 kts 269°
2026-04-26 20:44 43.10395 -76.18733 1618 ft 298 kts 253°
2026-04-26 20:45 43.09261 -76.21299 2291 ft 328 kts 229°
2026-04-26 20:45 43.07446 -76.23121 2938 ft 319 kts 207°
2026-04-26 20:45 43.05339 -76.23902 2923 ft 311 kts 184°
2026-04-26 20:45 43.03298 -76.23465 2938 ft 292 kts 158°
2026-04-26 20:46 43.01678 -76.21938 2961 ft 273 kts 130°
2026-04-26 20:46 43.00822 -76.19746 2961 ft 262 kts 102°
2026-04-26 20:46 43.00674 -76.17284 2984 ft 260 kts 88°
2026-04-26 20:46 43.00676 -76.14829 2974 ft 259 kts 88°
2026-04-26 20:47 43.00671 -76.12342 2972 ft 259 kts 88°
2026-04-26 20:47 43.00666 -76.10722 2972 ft 259 kts 88°
2026-04-26 20:47 43.00661 -76.07450 2972 ft 259 kts 88°
2026-04-26 20:47 43.00657 -76.04977 2969 ft 257 kts 88°
2026-04-26 20:48 43.00653 -76.02565 2718 ft 256 kts 86°
2026-04-26 20:48 43.01089 -76.00237 2303 ft 256 kts 58°
2026-04-26 20:48 43.02286 -75.98553 2114 ft 246 kts 28°
2026-04-26 20:48 43.03883 -75.97977 2130 ft 229 kts
2026-04-26 20:49 43.05427 -75.98007 2119 ft 217 kts 358°
2026-04-26 20:49 43.06883 -75.98045 2015 ft 200 kts 358°
2026-04-26 20:49 43.08198 -75.98084 1905 ft 179 kts 358°
2026-04-26 20:49 43.09317 -75.98550 1933 ft 165 kts 319°
2026-04-26 20:50 43.09870 -75.99888 1952 ft 164 kts 290°
2026-04-26 20:50 43.10212 -76.01335 1537 ft 149 kts 294°
2026-04-26 20:50 43.10540 -76.02584 1342 ft 138 kts 292°
2026-04-26 20:50 43.10839 -76.03835 1101 ft 135 kts 290°
2026-04-26 20:51 43.11001 -76.05093 923 ft 135 kts 280°
2026-04-26 20:51 43.11007 -76.06376 815 ft 135 kts 274°
2026-04-26 20:51 43.10969 -76.07666 654 ft 134 kts 269°
2026-04-26 20:51 43.10935 -76.08942 458 ft 134 kts 272°
2026-04-26 20:52 43.10891 -76.10177 414 ft 117 kts 268°
2026-04-26 20:52 43.10875 -76.11022 425 ft 63 kts 266°
2026-04-26 20:52 43.10860 -76.11476 427 ft 47 kts 267°
2026-04-26 20:52 43.10852 -76.11744 428 ft 14 kts 272°
2026-04-26 20:53 43.10920 -76.11813 428 ft 13 kts 354°
2026-04-26 20:53 43.10969 -76.11733 428 ft 12 kts 79°
2026-04-26 20:53 43.10978 -76.11621 428 ft 11 kts 89°
2026-04-26 20:53 43.10979 -76.11514 428 ft 11 kts 87°
2026-04-26 20:54 43.10985 -76.11404 426 ft 12 kts 85°
2026-04-26 20:54 43.10990 -76.11277 424 ft 13 kts 88°
2026-04-26 20:54 43.11015 -76.11159 424 ft 13 kts 39°
2026-04-26 20:54 43.11107 -76.11146 424 ft 13 kts
2026-04-26 20:55 43.11184 -76.11099 424 ft 12 kts 41°
2026-04-26 20:55 43.11230 -76.11064 424 ft 5 kts
2026-04-26 20:55 43.11251 -76.11066 424 ft 0 kts 358°